KAL017 RKSI-KLAX

Flight info

Callsign KAL017
Flight time N/A
Altitude 33000
Route EGOBA Y697 LANAT Y51 SAMON Y142 GTC Y512 ADNAP OTR7 EMRON DCT 42N160E/N0491F350 44N170E 43N180E 40N170W 39N160W 38N150W/N0480F370 37N140W 35N130W DCT GALIP DCT DINTY C1176 RZS
Aircraft B77W/H-SDE1E2E3FGHIJ2J3J4J5M1RWXY/LB1D1

Departure

Time 2026-05-05 03:33
Airport Incheon International Airport (RKSI)

Arrival

Time N/A
Airport Los Angeles International Airport (KLAX)
Time Latitude Longitude Altitude Speed Heading
2026-05-05 02:57 37.46723 126.44199 37 ft 0 kts 235°
2026-05-05 03:22 37.46727 126.44206 37 ft 2 kts 234°
2026-05-05 03:23 37.46736 126.44223 37 ft 2 kts 239°
2026-05-05 03:23 37.46744 126.44242 36 ft 2 kts 244°
2026-05-05 03:23 37.46750 126.44260 34 ft 2 kts 253°
2026-05-05 03:23 37.46754 126.44281 35 ft 2 kts 274°
2026-05-05 03:24 37.46749 126.44300 33 ft 2 kts 312°
2026-05-05 03:24 37.46741 126.44309 35 ft 1 kts 323°
2026-05-05 03:24 37.46740 126.44310 35 ft 0 kts 324°
2026-05-05 03:28 37.46744 126.44307 35 ft 5 kts 324°
2026-05-05 03:28 37.46837 126.44210 37 ft 27 kts 317°
2026-05-05 03:28 37.46959 126.44097 37 ft 15 kts 16°
2026-05-05 03:29 37.47034 126.44182 37 ft 15 kts 31°
2026-05-05 03:29 37.47136 126.44142 37 ft 21 kts 326°
2026-05-05 03:29 37.47313 126.43986 37 ft 41 kts 324°
2026-05-05 03:29 37.47535 126.43788 37 ft 37 kts 325°
2026-05-05 03:30 37.47735 126.43609 37 ft 34 kts 324°
2026-05-05 03:30 37.47886 126.43473 37 ft 22 kts 324°
2026-05-05 03:30 37.48014 126.43402 37 ft 17 kts 25°
2026-05-05 03:30 37.48092 126.43517 37 ft 17 kts 54°
2026-05-05 03:31 37.48139 126.43650 37 ft 17 kts 106°
2026-05-05 03:31 37.48095 126.43707 37 ft 0 kts 141°
2026-05-05 03:32 37.48093 126.43709 37 ft 4 kts 141°
2026-05-05 03:32 37.47968 126.43833 37 ft 51 kts 142°
2026-05-05 03:32 37.47508 126.44232 37 ft 108 kts 144°
2026-05-05 03:32 37.46759 126.44898 36 ft 155 kts 144°
2026-05-05 03:33 37.45779 126.45766 85 ft 184 kts 146°
2026-05-05 03:33 37.44778 126.46673 490 ft 180 kts 142°
2026-05-05 03:33 37.44204 126.48103 840 ft 204 kts 85°
2026-05-05 03:33 37.44667 126.49832 992 ft 213 kts 72°